Bogota, Colombia

6:16 PM -05 en Agosto 14, 2018 (GMT -0500)
Eldorado International

Tiempo Historia de SKBO - Enero, 2018

Change the Weather History Date:

Sábado, Enero 13, 2018

  Actual Average Record
Temperature  
Temperatura media 56 ° F -  
Temperatura máxima 64 ° F 66 ° F 73 ° F (1998)
Temperatura mínima 48 ° F 43 ° F 37 ° F (1997)
Degree Days  
Grados día de calefacción 9    
Growing Degree Days 6 (Base 50)    
Moisture  
Punto de rocío 50 ° F    
Average Humidity 79    
Maximum Humidity 94    
Minimum Humidity 49    
Precipitación  
Precipitación 0.00 pul 0.05 pul - ()
Presión al nivel del mar  
Presión al nivel del mar 30.30 pul    
Viento  
Velocidad del viento 4 mph ()    
Velocidad máxima del viento 12 mph    
Max Gust Speed -    
Visibilidad 6.1 Millas    
Eventos      
Averages and records for this station are not official NWS values.
T = Trace of Precipitation, MM = Missing Value Source: Averaged Metar Reports

Daily Weather History Graph

Daily Weather History Graph

Search for Another Location

Airport or City:

Astronomía

Jan. 13, 2018 Salida Puesta
Hora real 6:08 AM -05 6:01 PM -05
Crepúsculo civil 5:46 AM -05 6:23 PM -05
Crepúsculo náutico 5:20 AM -05 6:49 PM -05
Crepúsculo astronómico 4:55 AM -05 7:15 PM -05
Luna 3:18 AM -05 (1/13) 3:28 PM -05 (1/13)
Horas de luz 12h 37m
Horas de luz
11h 52m
Creciente menguante, 10% of the Moon is Illuminated
Ene 13
Creciente menguante
Ene 16
Nueva
Ene 24
Cuarto creciente
Ene 31
Luna llena
Feb 7
Cuarto menguante

Hourly Weather History & Observations

Hora (-05) Temp. Punto de rocío Humedad Presión Visibilidad Wind Dir Velocidad del viento Velocidad de ráfagas Precip Eventos Condiciones
12:00 AM 53.6 ° F 50.0 ° F 88% 30.35 pul 6.2 mi NO 6.9 mph - N/A   Muy nublado
1:00 AM 53 ° F 51 ° F 88%  pul 7 mi NO 4.5 mph - -   Bruma
1:00 AM 53.6 ° F 50.0 ° F 88% 30.33 pul 6.2 mi NO 3.5 mph - N/A   Muy nublado
2:00 AM 53.6 ° F 50.0 ° F 88% 30.30 pul 6.2 mi Variable 2.3 mph - N/A   Nubes dispersas
3:00 AM 50.0 ° F 48.2 ° F 94% 30.28 pul 6.2 mi Variable 2.3 mph - N/A   Nubes dispersas
4:00 AM 51 ° F 49 ° F 92%  pul 7 mi NNO 2.2 mph - -   Bruma
4:00 AM 51.8 ° F 50.0 ° F 94% 30.28 pul 6.2 mi Variable 2.3 mph - N/A   Nubes dispersas
5:00 AM 50.0 ° F 48.2 ° F 94% 30.29 pul 6.2 mi Variable 2.3 mph - N/A   Nubes dispersas
5:30 AM 51.8 ° F 50.0 ° F 94% 30.30 pul 6.2 mi NO 4.6 mph - N/A   Nubes dispersas
6:00 AM 50.0 ° F 48.2 ° F 94% 30.30 pul 6.2 mi Variable 2.3 mph - N/A   Nubes dispersas
7:00 AM 53 ° F 51 ° F 89%  pul 5 mi NNO 2.2 mph - -   Bruma
7:00 AM 53.6 ° F 48.2 ° F 82% 30.32 pul 5.0 mi Variable 2.3 mph - N/A   Nubes dispersas
8:00 AM 55.4 ° F 50.0 ° F 82% 30.35 pul 4.3 mi NE 3.5 mph - N/A   Nubes dispersas
9:00 AM 59.0 ° F 50.0 ° F 72% 30.35 pul 5.0 mi Variable 2.3 mph - N/A   Nubes dispersas
10:00 AM 61 ° F 49 ° F 54%  pul 5 mi NNE 2.2 mph - -   Bruma
10:00 AM 60.8 ° F 48.2 ° F 63% 30.35 pul 5.0 mi Variable 2.3 mph - N/A   Nubes dispersas
11:00 AM 64.4 ° F 44.6 ° F 49% 30.33 pul 6.2 mi ENE 3.5 mph - N/A   Muy nublado
12:00 PM 64.4 ° F 46.4 ° F 52% 30.31 pul 6.2 mi NNE 4.6 mph - N/A   Muy nublado
1:00 PM 60 ° F 51 ° F 65%  pul 5 mi ONO 11.2 mph - -   Bruma
1:00 PM 60.8 ° F 51.8 ° F 72% 30.30 pul 5.0 mi ONO 11.5 mph - N/A   Muy nublado
2:00 PM 60.8 ° F 51.8 ° F 72% 30.28 pul 6.2 mi Oeste 9.2 mph - N/A   Muy nublado
3:00 PM 60.8 ° F 50.0 ° F 68% 30.25 pul 6.2 mi Oeste 9.2 mph - N/A   Nubes dispersas
4:00 PM 61 ° F 51 ° F 60%  pul 7 mi SO 4.5 mph - -   Bruma
4:00 PM 60.8 ° F 50.0 ° F 68% 30.22 pul 6.2 mi SO 4.6 mph - N/A   Nubes dispersas
5:00 PM 60.8 ° F 51.8 ° F 72% 30.22 pul 6.2 mi OSO 6.9 mph - N/A   Nubes dispersas
6:00 PM 59.0 ° F 51.8 ° F 77% 30.23 pul 6.2 mi NO 9.2 mph - N/A   Parcialmente nublado
7:00 PM 55 ° F 50 ° F 79%  pul 9 mi Oeste 6.7 mph - -   Bruma
7:00 PM 55.4 ° F 50.0 ° F 82% 30.26 pul 6.2 mi Oeste 5.8 mph - N/A   Nubes dispersas
8:00 PM 55.4 ° F 51.8 ° F 88% 30.30 pul 6.2 mi OSO 3.5 mph - N/A   Muy nublado
9:00 PM 55.4 ° F 50.0 ° F 82% 30.33 pul 6.2 mi SO 4.6 mph - N/A   Nubes dispersas
10:00 PM 55 ° F 50 ° F 79%  pul 7 mi SO 4.5 mph - -   Bruma
10:00 PM 55.4 ° F 50.0 ° F 82% 30.34 pul 6.2 mi SO 4.6 mph - N/A   Muy nublado
11:00 PM 53.6 ° F 50.0 ° F 88% 30.33 pul 6.2 mi NO 3.5 mph - N/A   Nubes dispersas